Regional Weather Roundup
Issued by NWS Albany, NY

Home | Current Version | Previous Version | Text Only | Print | Product List | Glossary On
Versions: 1 2 3 4 5 6 7 8 9 10 11 12 13 14 15 16 17 18 19 20 21 22 23 24 25 26 27 28 29 30 31 32 33 34 35 36 37 38 39 40 41 42 43 44 45 46 47 48 49 50
000
ASUS41 KALY 281410
RWRALY

NEW YORK STATE HOURLY WEATHER ROUNDUP
NATIONAL WEATHER SERVICE ALBANY NY
1000 AM EDT THU MAY 28 2015

NOTE: "FAIR" INDICATES FEW OR NO CLOUDS BELOW 12,000 FEET WITH NO
SIGNIFICANT WEATHER AND/OR NO OBSTRUCTIONS TO VISIBILITY.

NYZ032-033-038>043-046>054-057>066-NYZ062>081-281500-
EAST


CITY           SKY/WX    TMP DP  RH WIND       PRES   REMARKS
ALBANY         PTSUNNY   74  65  73 S12       30.11R
GLENS FALLS    PTSUNNY   72  65  78 S12       30.09R
POUGHKEEPSIE   PTSUNNY   77  67  71 VRB7      30.13S
NEWBURGH       PTSUNNY   75  70  83 W9        30.16S
MONTGOMERY       N/A    N/A N/A N/A MISG      30.14S
WHITE PLAINS   CLOUDY    69  65  86 CALM      30.18R FOG
ISLIP          CLOUDY    66  61  84 SW12      30.17F
NEW YORK CITY  PTSUNNY   71  63  75 S8        30.17S
CENTRAL PARK   CLOUDY    73  67  81 CALM      30.20S HAZE
$$

NYZ005>009-017-018-044>046-055-056-281500-
CENTRAL


CITY           SKY/WX    TMP DP  RH WIND       PRES   REMARKS
FULTON         CLOUDY    61  53  75 W17G32    30.16R
SYRACUSE       PTSUNNY   67  56  67 NW14      30.14R
ROME           CLOUDY    69  59  70 W16       30.12R
ELMIRA         MOSUNNY   72  58  61 W13G22    30.17R
BINGHAMTON     PTSUNNY   68  58  70 W12G20    30.18S
MONTICELLO     SUNNY     70  68  94 SW6       30.19S
$$

NYZ026>034-041>043-281500-
NORTH


CITY           SKY/WX    TMP DP  RH WIND       PRES   REMARKS
WATERTOWN      PTSUNNY   60  53  77 SW14G20   30.11R
FORT DRUM      NOT AVBL
MASSENA        CLOUDY    67  60  78 S13G21    30.04R
SARANAC LAKE   CLOUDY    63  60  90 SW7       30.07S
PLATTSBURGH    PTSUNNY   73  64  73 CALM      30.03F
$$

NYZ001>004-010>016-019>021-281500-
WEST


CITY           SKY/WX    TMP DP  RH WIND       PRES   REMARKS
NIAGARA FALLS  MOSUNNY   65  52  62 NW12G20   30.22R
BUFFALO        MOSUNNY   65  52  62 W10       30.23R
DUNKIRK        SUNNY     63  52  67 VRB3      30.25S
JAMESTOWN      SUNNY     63  52  67 N7        30.28R
WELLSVILLE     MOSUNNY   65  52  62 NW16G22   30.26R
ROCHESTER      CLOUDY    64  53  67 W16G24    30.19R
PENN YAN       CLOUDY    65  53  65 W13G18    30.19R
$$

             KEY
       WCI = WIND CHILL INDEX
       VSB = VISIBILITY
       HX  = HEAT INDEX
$$



USA.gov is the U.S. government's official web portal to all federal, state and local government web resources and services.